Regional Weather Roundup
Issued by NWS

Home | Current Version | Previous Version | Text Only | Print | Product List | Glossary On
Versions: 1 2 3 4 5 6 7 8 9 10 11 12 13 14 15 16 17 18 19 20 21 22 23 24 25 26 27 28
000
ASCA42 TJSJ 200010
RWRPR
PUERTO RICO/U.S. VIRGIN ISLANDS HOURLY WEATHER ROUNDUP
NATIONAL WEATHER SERVICE SAN JUAN PR
800 PM AST SAT AUG 19 2017

PRZ001>002-007>008-010-200100-
PUERTO RICO

CITY           SKY/WX    TMP DP  RH WIND       PRES   REMARKS
SAN JUAN LMM   RAIN      81  79  94 NE14      29.89R
AGUADILLA      PTCLDY    81  75  83 E12       29.90S
CEIBA          PTCLDY    82  79  89 NE7       29.90S HX  93
$$

VIZ001>002-200100-
U.S. VIRGIN ISLANDS

CITY           SKY/WX    TMP DP  RH WIND       PRES   REMARKS
CHARLOTTE AMA  CLEAR     82  77  83 E8        29.87S HX  91
CHRISTIANSTED  CLEAR     82  79  89 NE6       29.88R HX  93
$$

HOURLY WEATHER ROUNDUP FOR THE NEWS MEDIA

CITY           SKY/WX    TMP DP  RH WIND       PRES   REMARKS
ORLANDO        CLEAR     87  74  64 SE13      29.93S HX  95
NEW YORK       PTCLDY    81  69  67 SW14      29.85R
NEWARK         PTCLDY    84  63  49 W9        29.84R
CHICAGO        PTCLDY    80  55  42 E9        29.95R
HARTFORD       CLEAR     77  64  64 SW8       29.82R
BOSTON         MOCLDY    66  65  96 NE3       29.81R
DALLAS         CLOUDY    97  67  37 SE10      29.89S HX 101
PHILADELPHIA   PTCLDY    84  66  54 W10       29.88R
LOS ANGELES    MOSUNNY   72  61  68 W14       29.90F
WASHINGTON DC  PTCLDY    80  69  69 S3        29.91R



USA.gov is the U.S. government's official web portal to all federal, state and local government web resources and services.